Regional Weather Roundup
Issued by NWS Grand Forks, ND

Home | Current Version | Previous Version | Graphics & Text | Print | Product List | Glossary On
Versions: 1 2 3 4 5 6 7 8 9 10 11 12 13 14 15 16 17 18 19 20 21 22 23 24 25 26 27 28 29 30 31 32 33 34 35 36 37 38 39 40 41 42 43 44 45 46 47 48 49 50
000
ASUS43 KFGF 290110
RWRFGF
PRAIRIE TO PINES  WEATHER ROUNDUP
NATIONAL WEATHER SERVICE EASTERN NORTH DAKOTA/GRAND FORKS ND
800 PM CDT FRI APR 28 2017

 **SATELLITE DATA USED TO AUGMENT SKY COVER AT AUTOMATED STATIONS**
 *****  WEATHER ACROSS EASTERN NORTH DAKOTA  *****

CITY           SKY/WX    TMP DP  RH WIND       PRES   REMARKS
GRAND FORKS    FAIR      51  27  39 N12       30.08R
GRAND FRKS AFB FAIR      48  22  36 N10       30.10R
DEVILS LAKE    FAIR      52  17  25 NW8       30.10R
FARGO          FAIR      50  25  37 N10       30.09R
WAHPETON ARPT  FAIR      48  23  37 N9        30.09R
$$

 ***** WEATHER ACROSS CENTRAL AND WESTERN NORTH DAKOTA  *****

CITY           SKY/WX    TMP DP  RH WIND       PRES   REMARKS
BISMARCK       FAIR      55  12  18 N7        30.11R
MINOT          FAIR      55  16  21 N5        30.09R
JAMESTOWN      FAIR      50  22  33 N8        30.09R
MINOT AFB      FAIR      55  17  23 N6        30.09R
GARRISON         N/A     51  14  22 SW9       30.10R
WILLISTON      FAIR      55  22  27 S3        30.10R
DICKINSON      FAIR      50  17  27 E5        30.09R
HETTINGER      FAIR      49  19  30 E7        30.11R
$$

 *****  OTHER AIRPORT OBSERVATIONS IN OUR AREA  *****

CITY           SKY/WX    TMP DP  RH WIND       PRES   REMARKS
WALHALLA       NOT AVBL
GRAFTON AIRPOR FAIR      48  21  34 NW10      30.11R
VALLEY CITY AR FAIR      50  18  27 N8        30.10R
CANDO          NOT AVBL
CAVALIER APRT  FAIR      50  12  22 N10       30.10R
GWINNER        CLEAR     52  27  37 MISG      30.09R
SHEYENNE NWR     N/A     51  17  25 NE7       29.95S
ROLLA          FAIR      50  12  22 NW7       30.10R
 ***** THE ABOVE OBSERVATIONS ARE NON NWS ARE NOT QUALITY
       CONTROLLED AND MAY MIS-REPORT RAIN FOR SNOW...
$$

  *****  WEATHER ACROSS NORTHERN MINNESOTA  *****

CITY           SKY/WX    TMP DP  RH WIND       PRES   REMARKS
FLAG ISLAND    FAIR      45  19  36 N6        30.05R
WARROAD        FAIR      45  25  45 CALM      30.07R
ROSEAU         FAIR      45  25  45 NW7       30.06R
HALLOCK        FAIR      50  10  20 N9        30.08R
THF RVR FALLS  FAIR      47  19  33 N6        30.08R
BAUDETTE       FAIR      43  20  39 N5        30.05R
WASKISH        FAIR      43  23  45 N6        30.06R
CROOKSTON      FAIR      48  25  40 N5        30.09R
STEPHEN NDAWN    N/A     48  23  37 NE6         N/A
GREENBUSH NDAW   N/A     45  28  53 N6          N/A
$$
  *****  WEATHER ACROSS CENTRAL AND WEST MINNESOTA  *****

CITY           SKY/WX    TMP DP  RH WIND       PRES   REMARKS
FOSSTON        FAIR      45  19  36 N7        30.08R
BEMIDJI        FAIR      44  18  34 N5        30.05R
PARK RAPIDS    FAIR      47  17  30 NW8       30.05R
ELBOW LAKE     FAIR      47  23  38 N12       30.07R
WADENA         FAIR      43  23  45 NW7       30.05R
DETROIT LAKES  FAIR      46  19  34 N5        30.08R
MOORHEAD       FAIR      48  23  37 N9        30.10R
FERGUS FALLS   FAIR      46  25  42 N9        30.07R
MORRIS MN      FAIR      50  21  32 CALM      30.06R
STAPLES        FAIR      45  16  31 N8        30.04R
$$
  *****  WEATHER ELSEWHERE ACROSS MINNESOTA  *****

CITY           SKY/WX    TMP DP  RH WIND       PRES   REMARKS
DULUTH         FAIR      43  26  51 N12       30.00R
INTRNTL FALLS  FAIR      41  22  46 E3        30.04R
ELY            FAIR      36  25  64 NW3       30.03R
CLOQUET        FAIR      45  21  39 N8        30.01R
WHEATON        FAIR      48  19  32 N9G16     30.11R
BRAINERD       FAIR      47  17  30 N12       30.04R
HIBBING        FAIR      39  22  50 N9        30.03R
ALEXANDRIA     FAIR      47  21  35 NW9       30.06R
SAINT CLOUD    FAIR      47  24  40 NE3       30.02R
MINNEAPOLIS    MOCLDY    48  27  44 N10G17    30.02R
$$

  *****  WEATHER ACROSS SOUTH DAKOTA  *****

CITY           SKY/WX    TMP DP  RH WIND       PRES   REMARKS
SIOUX FALLS    MOCLDY    46  32  58 NE10      30.01R
BROOKINGS      FAIR      45  25  45 N13       30.04R
WATERTOWN      FAIR      46  19  34 NE12      30.04R
HURON          FAIR      48  20  32 NE14      30.05R
SISSETON         N/A     50  18  28 NE17      30.07R
ABERDEEN       FAIR      50  18  28 NE12      30.08R
MITCHELL       FAIR      51  22  31 NE16      30.06R
PIERRE         FAIR      49  19  30 NE8       30.07R
MOBRIDGE       FAIR      52  10  18 NE9       30.06R
RAPID CITY     CLOUDY    45  26  47 NE8       30.09R
$$

  *****  SOME WEATHER IN NEARBY STATES *****

CITY           SKY/WX    TMP DP  RH WIND       PRES   REMARKS
GLASGOW MT     FAIR      55  24  30 SW7       30.07R
GREAT FALLS MT FAIR      43  35  73 SE6       30.13S
CHEYENNE WY    FOG       28  25  88 NE16G26   29.95S VSB 1/2 WCI  16
SCOTTSBLUFF NE LGT SNOW  34  31  88 N10       30.05R FOG
OMAHA NE       DRIZZLE   42  38  85 NE14      29.96R FOG
DES MOINES IA  CLOUDY    45  39  79 NE12      29.93R
DAVENPORT IA   CLOUDY    47  45  93 NE13      29.89R
CHICAGO IL     CLOUDY    52  42  69 NE7       29.91R
EAU CLAIRE WI  FAIR      46  29  51 N6        29.99R
LA CROSSE WI   CLOUDY    48  31  51 NE7       30.00R
$$

  *****  SOME NATIONAL WEATHER *****

CITY           SKY/WX    TMP DP  RH WIND       PRES   REMARKS
LA GUARDIA NY  MOCLDY    77  50  38 S6        30.01R
RALEIGH NC     FAIR      80  64  58 S9        30.06R
ATLANTA GA     MOCLDY    79  66  64 S5        30.06R
NEW ORLEANS LA CLOUDY    80  74  81 SE16      29.89R
OKLAHOMA CITY  CLOUDY    72  62  71 E9        29.65R
ALBUQUERQUE NM MOCLDY    40  39  97 SE10      29.76R
SALT LAKE CITY CLOUDY    46  35  65 N17       29.95R
LOS ANGELES CA PTSUNNY   66  49  54 W16       29.75R
BOISE ID       FAIR      57  28  33 NW20G30   30.07S
SEATTLE WA     PTSUNNY   59  37  44 W7        30.32F
$$

*** WEATHER ACROSS MANITOBA...SASKATCHEWAN AND ONTARIO ***
                ***ONTARIO***

CITY           SKY/WX    TMP DP  RH WIND       PRES   REMARKS
GERALDTON      LGT SNOW  28  23  80 W12G20    29.83R DRFTSNOWWCI  18
THUNDER BAY    MOCLDY    36  27  69 NW5       30.00R
SIOUX LOOKOUT  CLOUDY    36  19  51 NW6       30.00R
TORONTO        MOCLDY    61  41  48 SW10G23   29.96R
BIG TROUT LK   PTCLDY    34   9  35 N10G22    29.95R
PICKLE LAKE    MOCLDY    30  21  69 N6        29.96R WCI  24
DRYDEN         PTCLDY    39  19  45 N3        30.01R
KENORA         MOCLDY    43  14  31 NW6       30.04R
$$
                *** MANITOBA***

CITY           SKY/WX    TMP DP  RH WIND       PRES   REMARKS
BRANDON        CLEAR     50  18  27 E10       30.09R
DAUPHIN        CLEAR     48  12  23 NE8       30.11R
ISLAND LAKE    MOCLDY    37  18  44 NW7       30.07R
PILOT MOUND      N/A     50  16  25 NE8         N/A
THE PAS        PTCLDY    52   9  17 E3        30.10R
THOMPSON       CLOUDY    41  19  42 NE3       30.12R
WINNIPEG       PTCLDY    46  16  29 NE12      30.09R
LYNN LAKE      CLEAR     45  21  39 SE8       30.14R
CHURCHILL      CLOUDY    19  16  86 N24       30.24R WCI   2
GILLAM         MOCLDY    27  21  80 N22       30.16R WCI  12
$$
                ***SASKATCHEWAN***

CITY           SKY/WX    TMP DP  RH WIND       PRES   REMARKS
ESTEVAN        PTCLDY    55  18  22 SE2       30.08S
KINDERSLEY     PTSUNNY   43  27  52 W12G21    30.06S
LLOYDMINSTER   PTSUNNY   45  25  45 NE5       30.06S
PRINCE ALBERT  PTSUNNY   52  16  24 SE6       30.04S
REGINA         PTSUNNY   50  32  50 NW17      30.07R
YORKTON        CLEAR     55  19  24 E5        30.05S
N. BATTLEFORD  CLOUDY    41  36  81 S2        30.08S
LA RONGE       PTSUNNY   52   7  16 NE6       30.08R
SASKATOON      PTSUNNY   46  28  49 SW8       30.06S
SWIFT CURRENT  PTSUNNY   45  25  45 NW10      30.07S
$$
NOTE: THESE ARE AUTOMATED STATIONS WITH LIMITED QUALITY CONTROL
      "FAIR" INDICATES FEW OR NO CLOUDS BELOW 12,000 FEET WITH NO
      SIGNIFICANT WEATHER AND/OR OBSTRUCTIONS TO VISIBILITY.
      SKY/WX - SKY CONDITION AND SIGNIFICANT WEATHER.
      TMP - AIR TEMPERATURE.    DP   - DEWPOINT TEMPERATURE.
      RH  - RELATIVE HUMIDITY.  PRES - PRESSURE.
      HX  - HEAT INDEX.         WCI  - WIND CHILL INDEX.
$




USA.gov is the U.S. government's official web portal to all federal, state and local government web resources and services.